This demonstration page uses our WeatherBlox Daily Observations layout. Learn more.

Left ArrowRight Arrow

39.29038, -76.61219

Hourly Observations for October 7, 2016

Temp ( °F °C ) Dew Point ( °F °C ) Humidity (%) Winds ( mph kmh ) Pressure ( in mb ) Visibility ( mi km ) Precip ( " mm )
12:54 am 00:54 undefined 65 18.3 58 14.4 78 78 undefined N/A 30.28 1025 N/A 0.00 0.00
1:54 am 01:54 undefined 64 17.8 57 13.9 78 78 undefined N/A 30.27 1025 N/A 0.00 0.00
2:54 am 02:54 undefined 63 17.2 57 13.9 81 81 undefined N/A 30.26 1025 N/A 0.00 0.00
3:54 am 03:54 undefined 62 16.7 56 13.3 80 80 undefined N/A 30.24 1024 N/A 0.00 0.00
4:54 am 04:54 undefined 61 16.1 55 12.8 81 81 undefined N/A 30.23 1024 N/A 0.00 0.00
5:54 am 05:54 undefined 61 16.1 55 12.8 81 81 undefined N/A 30.24 1024 N/A 0.00 0.00
6:54 am 06:54 undefined 61 16.1 55 12.8 81 81 undefined N/A 30.25 1024 N/A 0.00 0.00
7:54 am 07:54 undefined 60 15.6 54 12.2 80 80 undefined N/A 30.28 1025 N/A 0.00 0.00
8:54 am 08:54 undefined 61 16.1 55 12.8 81 81 undefined N/A 30.29 1026 N/A 0.00 0.00
9:54 am 09:54 undefined 62 16.7 57 13.9 84 84 undefined N/A 30.28 1026 N/A 0.00 0.00
10:54 am 10:54 undefined 64 17.8 58 14.4 81 81 undefined N/A 30.27 1025 N/A 0.00 0.00
11:54 am 11:54 undefined 65 18.3 58 14.4 78 78 undefined N/A 30.27 1025 N/A 0.00 0.00
12:54 pm 12:54 undefined 68 20 59 15 73 73 undefined N/A 30.26 1025 N/A 0.00 0.00
1:54 pm 13:54 undefined 71 21.7 59 15 66 66 undefined N/A 30.23 1024 N/A 0.00 0.00
2:54 pm 14:54 undefined 72 22.2 59 15 64 64 undefined N/A 30.22 1024 N/A 0.00 0.00
3:54 pm 15:54 undefined 72 22.2 59 15 64 64 undefined N/A 30.20 1023 N/A 0.00 0.00
4:54 pm 16:54 undefined 73 22.8 60 15.6 64 64 undefined N/A 30.17 1022 N/A 0.00 0.00
5:54 pm 17:54 undefined 72 22.2 60 15.6 66 66 undefined N/A 30.16 1021 N/A 0.00 0.00
6:54 pm 18:54 undefined 71 21.7 59 15 66 66 undefined N/A 30.16 1021 N/A 0.00 0.00
7:54 pm 19:54 undefined 70 21.1 60 15.6 71 71 undefined N/A 30.15 1021 N/A 0.00 0.00
8:54 pm 20:54 undefined 68 20 61 16.1 78 78 undefined N/A 30.16 1021 N/A 0.00 0.00
9:54 pm 21:54 undefined 66 18.9 60 15.6 81 81 undefined N/A 30.16 1021 N/A 0.00 0.00
10:54 pm 22:54 undefined 66 18.9 60 15.6 81 81 undefined N/A 30.15 1021 N/A 0.00 0.00
11:54 pm 23:54 undefined 66 18.9 60 15.6 81 81 undefined N/A 30.14 1021 N/A 0.00 0.00

Powered by AerisWeather